RH
6 6 6 6 6 5 5 5 5 5 5 5 5 4 4 5 4 4 4 5 7 8 8 8 8 8 7 8 8 9 8 8 9 8 9 9 8 7 9 11 14 14 14 14 16 24 37 41 40 40 42 46 47 47 48 53 59 61 59 61 64 64 64 64 64 65 63 63 66 67 65 62 62 62 63 62 59 58 59 60 63 64 62 63 65 68 72 71
7 6 6 6 6 5 5 5 5 5 5 5 5 5 4 4 4 4 4 4 6 7 8 8 8 8 8 7 8 8 9 9 9 9 9 9 8 8 9 10 11 12 13 14 15 19 31 41 43 43 44 44 44 46 47 51 54 54 53 55 59 61 63 63 63 64 63 64 65 66 65 62 61 62 63 61 59 56 56 57 60 63 64 65 66 66 68 70
6 6 6 6 6 5 5 5 5 5 5 5 5 4 5 4 4 4 5 5 5 6 6 7 8 8 9 8 8 8 8 9 9 9 11 12 10 9 10 10 10 10 11 12 14 15 21 29 34 39 43 41 42 44 45 49 50 48 50 52 56 58 61 61 62 64 65 66 66 66 66 63 61 61 62 61 58 55 54 56 57 60 64 66 67 66 65 68
7 6 6 6 5 5 5 5 5 5 4 4 4 4 4 4 4 5 6 6 6 5 5 5 6 7 9 9 8 8 8 9 10 12 14 14 12 10 10 11 9 9 10 11 13 15 18 22 28 36 40 39 41 42 43 47 47 45 48 50 54 57 58 60 61 64 66 66 65 65 65 64 62 60 61 60 58 55 53 55 55 56 61 65 68 66 65 66
6 6 6 6 5 5 5 5 5 4 4 4 4 4 4 4 4 6 6 6 6 6 5 5 5 5 7 8 8 8 7 10 13 14 15 15 13 12 11 11 10 8 9 11 13 16 19 22 30 36 36 36 38 39 40 44 45 43 45 49 55 57 58 60 62 66 67 65 64 63 63 63 63 61 60 60 57 54 53 55 55 53 55 60 66 67 65 65
6 6 6 5 5 5 5 5 5 4 4 4 4 4 4 4 4 5 7 7 7 6 6 6 5 5 6 7 8 8 7 9 12 14 14 14 13 13 12 11 11 8 8 11 14 18 21 25 31 33 33 34 36 37 38 42 44 43 43 48 55 57 58 61 65 69 69 66 63 61 61 61 62 60 59 59 57 56 54 55 55 51 50 54 64 67 65 63
8 7 6 6 5 5 5 5 5 4 4 4 4 4 4 4 4 5 6 6 6 6 6 6 7 7 7 7 7 8 8 8 10 12 13 13 13 14 13 12 12 9 7 11 15 17 20 24 28 29 31 33 35 36 37 40 43 42 43 46 53 56 57 60 64 67 67 66 63 61 60 59 59 58 57 56 56 56 53 52 52 50 49 51 59 65 67 64
9 9 8 7 6 5 5 5 5 4 4 4 4 4 3 3 4 5 6 6 5 5 5 7 7 7 7 7 7 9 8 7 9 12 14 14 14 14 14 13 13 10 7 8 13 14 16 21 23 25 28 30 34 37 37 38 41 42 42 45 51 54 56 57 59 62 64 66 64 61 60 58 56 55 54 54 55 55 51 50 51 51 50 51 55 61 65 64
9 9 9 9 8 7 6 5 5 4 4 4 4 4 3 3 3 4 5 5 4 4 7 8 7 7 7 8 8 8 7 7 9 11 13 15 16 15 14 13 13 12 9 8 10 13 15 19 19 20 22 27 34 37 36 36 37 39 41 43 50 53 53 55 56 59 63 65 64 61 58 57 56 53 51 51 54 54 51 50 51 50 50 51 54 56 57 59
9 9 9 9 9 8 7 6 5 5 5 4 4 4 3 3 3 4 4 4 4 5 8 8 6 7 9 9 8 7 6 8 10 10 10 13 16 18 16 14 14 12 10 10 12 13 13 14 15 15 17 23 29 33 35 34 34 37 37 39 47 50 49 51 52 55 60 62 61 59 57 55 55 52 47 48 52 53 53 53 51 49 50 49 50 53 53 54
9 9 9 9 9 9 8 7 6 6 5 5 4 4 4 4 3 3 3 4 4 6 8 8 8 9 9 10 9 6 5 8 11 12 11 11 13 18 19 17 15 13 10 12 13 13 12 11 12 13 13 17 23 27 31 32 33 36 34 33 40 44 43 44 47 51 56 59 58 58 56 53 53 50 45 47 51 53 55 54 52 51 50 49 48 50 52 51
9 8 9 9 9 9 9 8 6 6 5 5 5 4 4 4 4 4 4 4 6 8 8 9 9 10 10 9 8 7 6 7 10 12 12 11 11 15 20 19 17 14 10 12 13 13 13 12 12 12 11 13 18 20 24 29 31 33 32 32 34 38 39 40 44 48 52 55 56 57 56 53 52 50 45 47 51 54 56 55 54 53 52 51 49 48 50 51
8 8 8 9 9 9 9 8 7 6 5 5 4 4 4 4 4 4 5 6 7 9 8 8 9 9 10 9 7 8 8 6 7 10 11 12 11 14 21 22 19 18 14 13 14 13 13 13 12 12 11 12 15 15 17 23 27 29 30 32 33 35 35 37 42 45 47 52 55 57 57 54 52 49 46 48 52 55 56 55 55 54 53 53 52 49 50 50
7 7 8 9 9 9 9 8 7 5 4 4 4 4 4 4 4 4 6 7 7 8 8 8 10 11 12 10 9 9 11 8 7 9 10 11 12 14 20 23 22 22 19 16 15 14 14 13 14 12 11 12 13 13 14 19 23 25 27 30 32 33 32 36 40 42 44 47 52 57 58 54 50 49 48 49 52 55 56 57 57 56 55 55 54 51 49 51
6 7 8 9 10 9 9 9 7 5 4 3 4 4 3 4 4 4 6 7 6 8 10 11 11 14 14 10 9 9 10 9 9 9 10 10 11 15 21 23 25 26 22 19 16 15 15 14 15 13 12 11 12 12 13 16 19 22 27 30 30 30 30 33 38 39 42 45 48 54 58 53 49 49 51 52 53 54 55 57 58 57 56 56 56 53 49 51
6 7 7 9 10 10 9 9 7 5 4 3 4 4 3 4 4 5 7 6 6 10 12 11 11 16 16 10 9 9 8 8 8 9 10 10 9 15 22 24 27 27 22 19 18 17 16 14 15 14 12 12 11 12 13 15 19 20 24 28 29 28 28 30 34 35 39 43 44 50 55 52 48 50 53 54 53 54 54 56 58 57 57 56 56 55 52 50
7 7 7 8 9 10 9 8 6 5 5 4 4 3 4 5 5 7 8 6 7 10 13 11 11 16 15 9 9 10 9 8 7 9 10 10 9 13 21 26 28 25 20 18 18 18 17 16 15 14 13 12 10 12 14 17 20 20 21 24 26 26 26 28 31 33 36 41 43 49 53 50 48 51 54 55 53 53 53 55 57 57 57 56 56 56 55 52
7 6 6 7 9 9 8 7 6 5 5 5 4 4 5 5 7 10 9 6 7 10 12 11 11 14 12 9 10 10 10 10 8 8 9 10 10 12 20 25 27 24 21 19 18 18 18 16 14 14 13 12 11 11 14 16 16 18 19 20 24 26 25 27 31 33 34 38 41 45 51 51 51 52 55 54 53 52 52 53 55 57 57 56 56 56 56 56
6 6 5 7 9 9 8 6 6 5 5 5 4 5 5 6 9 11 9 6 7 8 9 9 9 11 11 10 11 11 10 9 9 9 8 9 10 14 22 25 23 21 20 19 19 19 18 17 16 15 13 12 11 9 11 15 14 13 16 19 22 23 24 25 28 33 35 37 39 40 46 51 51 52 53 55 54 51 50 50 52 55 56 56 55 55 56 57
6 6 6 7 9 9 8 6 6 6 6 6 5 5 7 9 10 10 9 7 7 7 7 8 9 10 11 11 12 12 11 9 10 10 9 10 11 18 25 25 21 19 19 19 19 19 19 19 17 14 12 11 10 10 10 13 13 13 15 19 21 21 22 24 27 33 35 36 38 38 41 46 47 48 51 53 53 50 47 48 51 54 56 56 54 54 56 58
7 6 7 8 9 9 7 7 7 7 7 7 6 7 10 13 12 12 12 9 7 7 8 9 11 12 11 12 12 12 12 9 10 11 11 12 13 20 27 25 20 18 17 18 20 21 20 19 17 13 12 11 11 11 10 10 12 15 17 20 23 23 21 22 26 33 36 36 37 38 39 38 41 45 49 52 51 47 46 47 50 53 55 55 54 54 56 58
8 8 8 10 10 9 7 7 7 8 8 7 7 9 12 14 14 15 14 12 8 7 9 10 13 14 12 13 13 12 13 10 9 11 12 13 15 20 25 24 21 18 16 18 20 22 21 18 16 14 13 12 11 12 11 10 10 14 18 21 24 24 21 21 25 32 37 35 35 37 38 36 36 42 47 48 49 47 46 47 49 52 54 54 54 55 56 58
10 10 10 12 12 10 9 9 9 9 9 8 8 10 12 12 14 15 14 13 9 8 11 12 14 15 13 13 13 12 12 11 11 12 13 14 17 20 23 24 22 20 18 18 18 20 20 18 16 15 15 14 13 12 12 11 10 11 17 21 23 22 23 24 25 30 35 35 34 35 36 36 35 38 42 44 47 47 46 46 47 49 52 54 55 56 57 58
10 12 13 14 14 13 12 12 12 12 11 12 11 11 13 13 13 14 13 12 10 10 12 14 15 15 13 13 13 12 12 12 12 14 14 14 16 18 21 23 24 23 19 17 17 18 18 18 17 17 17 16 14 13 12 12 11 9 12 19 22 21 23 25 25 27 31 33 33 33 35 36 36 36 38 42 46 47 46 45 44 45 49 54 56 55 55 55
11 13 14 15 15 15 15 15 16 16 16 15 15 14 15 14 15 15 14 12 10 12 13 14 14 14 12 12 14 13 13 13 12 14 16 15 15 16 19 22 24 25 22 18 18 17 17 18 19 19 20 18 16 14 13 12 12 11 9 13 18 21 22 25 26 27 29 31 31 32 34 34 35 36 35 41 47 47 45 45 44 44 46 51 53 53 53 54
11 13 15 17 17 17 18 19 19 19 18 18 18 18 17 16 16 15 14 12 11 12 14 14 13 13 13 13 14 14 14 13 13 14 16 17 16 15 18 20 22 25 24 21 19 17 16 17 19 22 23 21 19 17 14 12 13 13 9 8 13 18 22 24 26 29 30 30 29 31 33 31 32 34 34 39 45 46 44 42 42 43 44 48 50 50 51 52
12 14 15 17 19 19 20 21 21 20 20 21 20 20 19 17 16 15 14 14 14 15 15 15 14 14 13 13 14 14 15 15 15 15 16 17 17 16 18 20 22 24 24 26 26 22 17 17 19 22 24 23 22 18 15 13 13 13 10 8 10 13 18 22 25 29 29 29 28 29 30 30 28 28 31 36 41 45 43 40 40 41 43 46 47 47 49 50
13 14 16 18 20 20 21 22 22 21 22 22 21 21 20 18 17 16 16 14 15 17 17 16 15 15 14 13 14 15 16 17 17 18 18 17 17 15 17 20 21 22 23 27 30 25 20 19 19 21 23 24 22 19 17 15 14 13 12 12 10 10 14 19 24 27 27 29 31 29 28 29 25 22 28 34 36 40 40 38 39 40 42 45 46 46 47 48
13 15 17 19 21 22 22 22 21 22 22 23 22 21 21 19 17 18 17 17 18 18 16 16 15 15 15 14 14 16 17 17 17 19 20 19 18 15 16 19 21 23 23 25 28 26 22 21 20 21 23 22 22 21 20 17 15 13 15 15 12 12 15 19 23 24 26 29 31 29 27 29 26 19 23 31 31 32 33 36 39 39 41 44 45 46 45 47
14 17 18 20 23 24 24 23 21 21 22 23 23 22 20 19 18 19 18 19 20 20 17 17 16 15 15 14 14 15 15 16 17 17 19 21 20 18 17 19 22 24 25 25 26 26 24 22 22 22 22 21 22 24 23 20 17 14 16 18 18 18 18 20 21 21 26 28 26 26 25 28 28 20 19 26 27 26 29 33 36 38 40 42 45 45 44 45
16 19 20 22 25 25 25 24 23 22 21 23 23 21 20 19 18 19 19 20 20 20 18 18 17 17 16 15 15 14 14 16 18 19 20 21 22 22 20 20 22 26 28 27 25 25 24 24 25 24 24 24 25 27 26 24 20 18 18 20 21 22 21 21 22 22 26 25 20 21 21 24 28 22 17 20 24 25 27 28 32 36 38 41 44 45 44 45
19 21 22 25 27 28 27 26 25 23 22 22 21 20 19 18 19 19 20 20 20 19 19 19 19 18 18 17 17 15 14 15 19 21 22 22 24 25 24 24 24 26 29 29 25 24 24 24 26 27 27 27 28 29 30 28 25 22 21 22 23 25 26 27 25 23 23 21 17 17 18 21 23 22 17 17 21 24 24 24 27 32 37 41 44 45 44 44
21 23 25 28 30 31 31 29 27 25 24 22 21 20 18 17 19 22 20 20 21 20 20 20 20 19 19 19 18 17 16 16 19 21 24 26 28 27 27 26 25 26 29 31 28 25 24 24 27 30 31 29 29 30 31 31 29 26 24 23 24 26 30 31 28 23 21 19 16 15 16 18 18 18 16 14 18 21 22 22 25 30 35 40 43 43 42 42
25 26 29 32 32 33 33 32 30 29 27 25 22 20 18 18 21 23 21 20 21 21 20 21 21 21 21 20 20 19 18 18 19 22 25 29 31 31 31 29 28 28 28 31 31 28 26 26 27 32 34 31 29 30 31 31 30 29 25 24 24 23 25 28 26 23 21 19 17 16 16 17 16 16 14 11 14 18 19 20 23 29 35 38 40 40 40 40
29 30 32 34 34 34 34 34 33 32 31 29 26 23 21 21 22 22 20 21 21 21 22 22 23 24 23 22 21 21 21 21 21 23 25 30 33 34 33 32 31 31 30 32 34 33 31 28 27 31 34 33 32 31 31 31 31 30 28 28 26 22 21 22 21 20 19 18 17 17 17 15 14 14 13 10 12 14 17 19 22 29 35 38 39 38 39 39
33 33 34 35 35 35 35 34 34 33 32 31 31 30 28 25 24 22 22 22 22 23 23 24 25 26 26 25 25 25 24 23 22 24 27 31 35 36 34 34 32 33 35 36 36 37 36 32 30 31 33 33 34 33 32 32 33 32 31 30 27 24 23 23 22 20 20 21 20 17 16 13 11 12 10 9 11 12 14 18 22 29 35 37 37 37 37 37
35 36 37 37 36 36 34 33 33 32 31 32 33 33 31 29 27 25 25 25 25 25 25 27 28 29 30 31 30 30 28 25 23 26 30 33 36 38 36 35 33 33 36 39 38 37 37 35 33 33 33 33 34 33 31 32 33 34 34 30 26 27 27 27 27 25 22 23 22 19 16 12 11 12 10 10 10 11 12 15 21 29 34 35 34 35 35 35
37 38 39 39 38 36 33 33 32 30 32 34 34 34 32 30 30 29 29 29 28 28 30 32 34 34 34 35 34 32 32 32 27 26 30 34 37 40 40 38 35 33 34 39 41 38 37 39 37 34 35 34 33 34 33 31 32 34 34 31 31 33 31 30 31 28 25 25 24 20 17 14 12 11 10 9 9 9 11 14 19 26 31 32 31 33 33 34
39 41 42 43 40 36 34 33 31 30 34 37 37 35 33 32 33 34 34 34 32 33 35 36 37 38 38 37 37 36 36 37 33 27 29 33 37 41 42 41 39 36 34 37 42 41 41 43 40 36 35 35 34 35 34 33 34 35 36 36 37 36 33 31 29 25 25 26 24 22 18 14 12 10 9 9 9 8 10 12 15 20 26 29 30 30 31 33
43 44 46 46 43 38 36 33 32 33 37 39 40 39 38 38 38 39 39 37 35 36 38 39 40 40 40 40 40 41 40 40 37 31 29 31 36 40 42 41 40 38 36 35 39 43 46 46 42 38 36 36 38 37 36 36 37 38 40 42 42 40 36 34 31 26 23 24 24 23 20 15 11 10 8 8 8 8 9 11 14 18 23 26 28 28 29 32
46 48 49 49 46 42 39 38 39 41 41 41 42 43 43 42 41 42 42 39 38 39 40 40 42 43 43 43 44 44 44 43 41 36 32 32 36 40 42 42 42 40 38 37 38 43 48 49 44 40 39 39 39 39 37 37 38 39 41 43 43 41 39 38 35 29 25 24 24 23 22 16 11 10 10 8 7 7 8 10 12 16 21 24 25 27 28 29
49 50 52 52 49 45 43 44 47 48 46 45 47 48 47 46 44 44 44 43 43 43 43 43 45 47 48 47 46 46 47 47 44 40 35 34 37 40 40 41 42 40 39 40 41 43 48 51 48 43 41 40 39 40 40 39 39 40 40 42 42 41 41 40 38 33 28 26 25 24 24 19 13 11 11 10 9 7 7 9 10 13 17 21 22 25 28 28
53 54 55 54 52 49 48 50 52 52 51 50 51 51 49 48 47 46 46 47 47 47 46 47 48 51 52 51 50 50 49 48 47 43 40 39 40 40 38 38 39 39 40 42 45 46 49 52 51 45 40 40 42 43 42 41 41 41 41 40 41 42 42 39 38 37 33 29 27 27 27 21 14 12 11 9 10 10 9 8 9 11 15 19 22 24 27 28
55 56 57 56 53 51 53 56 58 58 57 56 54 53 52 51 50 49 49 49 50 49 48 49 51 53 54 52 52 52 51 48 48 47 44 44 46 46 40 36 34 34 38 44 46 46 48 52 54 49 42 44 52 52 47 45 44 43 42 41 40 41 41 39 39 39 36 31 27 28 28 22 16 15 14 11 11 11 10 9 8 10 12 16 20 23 26 28
57 57 58 57 54 54 59 63 63 63 63 62 59 57 55 54 54 53 51 50 52 51 50 51 53 54 54 53 53 54 54 54 53 52 50 50 51 49 42 36 32 30 33 40 42 42 44 47 52 52 46 47 57 59 52 48 47 45 44 44 42 41 40 40 42 42 38 33 28 27 27 22 16 15 15 14 12 11 12 12 11 10 10 12 16 19 23 25
58 58 59 59 56 58 62 65 66 66 66 66 64 62 60 58 57 56 53 52 53 52 52 54 55 56 56 57 60 63 63 63 61 59 58 57 55 50 42 36 32 30 31 36 37 38 41 43 47 53 49 45 53 59 53 48 48 45 44 44 44 42 40 40 43 43 40 37 31 27 26 21 15 14 14 13 12 12 13 14 13 12 11 11 13 15 18 21
59 61 63 62 61 62 63 64 66 67 66 67 67 65 64 61 59 57 55 54 54 53 55 57 59 60 62 63 67 69 67 67 67 64 64 61 55 49 43 37 33 32 33 35 35 35 39 42 43 48 49 42 44 54 55 50 48 45 43 43 43 43 41 40 42 41 40 39 35 30 27 22 16 14 15 15 14 14 15 15 14 14 13 12 12 12 14 17
60 63 65 64 64 65 63 63 66 67 66 67 67 65 64 63 60 59 58 56 55 54 56 60 62 64 66 68 70 70 69 68 67 66 64 62 58 53 46 40 36 35 35 35 34 34 37 40 40 44 48 44 40 46 53 53 49 46 44 42 42 42 40 40 41 39 40 43 40 34 30 25 20 16 15 17 18 18 17 16 15 14 13 13 13 12 12 13
62 65 65 65 66 65 65 64 66 67 66 66 67 65 65 64 62 61 58 57 57 55 57 62 65 65 65 66 68 70 71 71 70 68 65 62 60 57 51 45 39 38 37 35 34 34 36 40 41 44 49 48 42 42 48 53 52 48 45 43 42 41 38 38 38 39 44 47 42 36 33 27 21 19 19 22 24 22 20 19 18 17 16 16 16 14 13 12
65 66 66 66 67 65 64 65 66 66 66 66 68 68 66 65 64 62 60 60 60 59 60 64 66 66 64 61 62 65 65 66 67 66 63 61 59 58 55 49 44 42 40 37 36 34 36 40 41 43 49 51 48 44 45 49 52 50 45 43 43 42 39 38 41 46 54 54 44 38 36 30 24 25 26 27 27 24 22 23 24 24 23 23 21 18 16 14
66 68 66 66 67 65 63 64 65 66 65 66 68 69 67 65 65 64 64 63 63 63 63 65 66 67 66 60 58 60 60 61 62 62 60 60 56 54 54 51 48 46 43 40 39 36 37 39 38 39 46 49 51 52 48 47 50 49 47 44 43 43 43 44 49 56 62 61 51 42 37 33 31 30 28 28 28 25 24 28 30 30 29 29 27 24 20 18
65 67 67 67 67 64 63 65 65 64 65 65 67 68 68 67 66 67 68 68 68 68 65 63 64 66 65 60 56 57 59 59 59 57 56 55 52 49 48 46 46 47 45 42 41 39 39 41 40 42 44 43 48 55 54 51 52 50 48 45 43 44 47 48 54 61 64 62 54 46 40 38 36 32 30 30 29 27 27 30 32 32 31 31 32 30 27 22